Santa Rosa, CA

7:40 PM PST on December 05, 2019 (GMT -0800)
Sonoma County

Weather History for KSTS - October, 2019

Change the Weather History Date:

Monday, October 7, 2019

  Actual Average Record
Temperature  
Mean Temperature 69 °F 63 °F  
Max Temperature 90 °F 79 °F 96 °F (2002)
Min Temperature 47 °F 46 °F 37 °F (2007)
Degree Days  
Heating Degree Days 0    
Month to date heating degree days 31  
Since 1 July heating degree days 67  
Cooling Degree Days 4    
Month to date cooling degree days 5  
Year to date cooling degree days 545  
Growing Degree Days 19 (Base 50)    
Moisture  
Dew Point 41 °F    
Average Humidity 46    
Maximum Humidity 77    
Minimum Humidity 15    
Precipitation  
Precipitation 0.00 in 0.03 in 0.89 in (1981)
Month to date precipitation 0.00 0.18  
Year to date precipitation 38.52 22.71  
Sea Level Pressure  
Sea Level Pressure 29.93 in    
Wind  
Wind Speed 3 mph (WSW)    
Max Wind Speed 13 mph    
Max Gust Speed 16 mph    
Visibility 10 miles    
Events      
T = Trace of Precipitation, MM = Missing Value Source: NWS Daily Summary

Daily Weather History Graph

Daily Weather History Graph

Search for Another Location

Airport or City:

Astronomy

Oct. 07, 2019 Rise Set
Actual Time 7:12 AM PDT 6:45 PM PDT
Civil Twilight 6:45 AM PDT 7:11 PM PDT
Nautical Twilight 6:15 AM PDT 7:42 PM PDT
Astronomical Twilight 5:44 AM PDT 8:12 PM PDT
Moon 4:05 PM PDT (10/7) 1:15 AM PDT (10/7)
Length of Visible Light 12h 25m
Length of Day
11h 32m
Waxing Gibbous, 70% of the Moon is Illuminated
Oct 7
Waxing Gibbous
Oct 13
Full
Oct 21
Last Quarter
Oct 27
New
Nov 4
First Quarter

Hourly Weather History & Observations

Time (PDT) Temp. Dew Point Humidity Pressure Visibility Wind Dir Wind Speed Gust Speed Precip Events Conditions
12:53 AM 55.0 °F 43.0 °F 64% 29.98 in 10.0 mi West 3.5 mph - N/A   Clear
1:53 AM 54.0 °F 44.1 °F 69% 29.97 in 10.0 mi Calm Calm - N/A   Clear
2:53 AM 50.0 °F 42.1 °F 74% 29.97 in 10.0 mi SE 3.5 mph - N/A   Clear
3:53 AM 52.0 °F 43.0 °F 71% 29.96 in 10.0 mi NW 3.5 mph - N/A   Clear
4:53 AM 53.1 °F 42.1 °F 66% 29.96 in 10.0 mi NW 4.6 mph - N/A   Clear
5:53 AM 50.0 °F 42.1 °F 74% 29.96 in 10.0 mi Calm Calm - N/A   Clear
6:53 AM 50.0 °F 42.1 °F 74% 29.98 in 10.0 mi Calm Calm - N/A   Partly Cloudy
7:53 AM 48.9 °F 41.0 °F 74% 29.98 in 10.0 mi NW 3.5 mph - N/A   Partly Cloudy
8:53 AM 60.1 °F 43.0 °F 53% 30.00 in 10.0 mi NW 3.5 mph - N/A   Partly Cloudy
9:53 AM 66.0 °F 42.1 °F 42% 29.99 in 10.0 mi NW 3.5 mph - N/A   Clear
10:53 AM 73.9 °F 42.1 °F 32% 29.98 in 10.0 mi Calm Calm - N/A   Clear
11:53 AM 80.1 °F 43.0 °F 27% 29.96 in 10.0 mi SSW 3.5 mph - N/A   Clear
12:53 PM 84.9 °F 39.0 °F 20% 29.94 in 10.0 mi Variable 3.5 mph - N/A   Clear
1:53 PM 86.0 °F 37.9 °F 18% 29.91 in 10.0 mi WSW 6.9 mph - N/A   Clear
2:53 PM 89.1 °F 37.0 °F 16% 29.88 in 10.0 mi Variable 4.6 mph - N/A   Clear
3:53 PM 90.0 °F 35.1 °F 14% 29.88 in 10.0 mi Variable 4.6 mph - N/A   Clear
4:53 PM 87.1 °F 37.9 °F 18% 29.87 in 10.0 mi SW 9.2 mph - N/A   Clear
5:53 PM 82.9 °F 36.0 °F 19% 29.86 in 10.0 mi WSW 5.8 mph - N/A   Clear
6:53 PM 75.9 °F 39.0 °F 26% 29.87 in 10.0 mi Calm Calm - N/A   Clear
7:53 PM 68.0 °F 42.1 °F 39% 29.88 in 10.0 mi South 4.6 mph - N/A   Clear
8:53 PM 66.0 °F 42.1 °F 42% 29.89 in 10.0 mi SE 3.5 mph - N/A   Clear
9:53 PM 60.1 °F 42.1 °F 51% 29.89 in 10.0 mi West 3.5 mph - N/A   Clear
10:53 PM 57.9 °F 42.1 °F 56% 29.88 in 10.0 mi Calm Calm - N/A   Clear
11:53 PM 54.0 °F 43.0 °F 66% 29.88 in 10.0 mi WNW 3.5 mph - N/A   Clear